Lapse_Rate
6.8 7.0 7.3 7.7 7.6 7.6 7.5 7.4 7.7 7.7 7.7 7.2 7.3 7.0 6.9 6.7 6.7 7.0 7.2 7.3 6.9 7.0 6.9 7.2 7.4 7.1 6.6 7.1 7.2 7.8 8.0 7.4 6.6 7.0 7.7 8.2 8.5 8.4 8.6 7.8 7.0 6.6 6.8 6.8 7.2 7.6 7.3 8.1 8.2 8.2 8.7 8.5 8.5 8.4
6.6 6.9 7.4 7.6 7.5 7.4 7.5 7.6 7.6 7.6 7.4 7.1 7.0 7.0 6.7 6.7 6.6 6.9 7.0 7.1 7.1 7.1 7.0 7.3 7.2 7.0 6.7 6.9 7.3 8.0 7.5 7.3 6.8 7.2 7.7 8.4 8.4 7.8 8.0 8.2 8.0 7.2 6.7 7.5 7.8 8.0 8.1 8.4 8.7 8.7 8.9 8.8 8.5 8.4
6.7 6.9 7.2 7.6 7.6 7.3 7.3 7.5 7.6 7.4 7.3 7.2 7.2 6.9 6.7 6.8 7.0 7.2 7.0 7.1 7.1 7.0 7.1 7.0 6.7 6.8 6.7 7.2 7.7 7.8 7.7 7.7 7.3 7.3 8.0 8.0 8.0 7.7 7.6 8.0 8.3 7.7 7.7 7.3 7.4 7.6 8.1 8.1 8.3 8.5 8.5 8.7 8.6 8.3
6.8 6.7 6.9 7.4 7.2 7.2 7.0 7.2 7.4 7.7 7.5 7.6 7.4 7.0 7.0 6.8 7.2 6.9 7.2 7.2 7.0 6.9 7.0 6.6 6.5 6.4 6.8 7.5 7.5 6.9 7.4 7.8 7.4 7.3 7.5 7.6 8.2 8.0 7.7 7.9 8.0 7.8 7.7 7.3 7.5 8.0 7.9 8.0 8.0 8.2 7.9 8.3 8.5 8.1
6.8 6.7 6.8 6.9 7.3 7.2 7.0 7.0 7.2 7.2 7.1 7.2 7.0 6.9 7.0 7.0 6.9 7.0 7.0 6.8 6.6 6.7 6.6 6.1 6.6 6.3 7.0 7.4 7.7 7.5 7.1 7.0 6.8 6.9 6.8 6.9 7.4 8.0 7.7 7.4 7.1 7.5 7.4 7.7 7.6 8.2 7.8 7.8 7.9 7.8 7.8 7.9 7.8 7.7
6.9 6.9 6.8 6.8 7.0 7.0 6.7 6.8 6.7 6.7 6.9 6.9 6.9 6.9 6.9 7.0 6.9 6.9 6.4 6.3 6.3 6.2 6.0 6.2 6.6 7.0 7.0 6.9 7.1 7.2 7.1 6.9 6.8 6.6 6.5 6.9 7.6 7.6 7.4 7.2 7.6 7.7 7.9 7.5 7.3 7.7 7.6 7.7 7.6 7.8 7.6 7.6 7.8 7.7
6.6 6.7 6.8 6.9 6.9 6.9 6.9 6.9 6.9 7.0 7.0 7.0 7.0 6.8 6.7 6.7 6.7 6.4 6.0 6.1 6.3 6.2 6.0 6.5 7.1 7.4 7.3 6.7 7.3 7.5 7.0 6.8 6.8 6.6 6.5 6.8 7.3 7.2 6.8 6.9 7.7 7.8 7.7 7.7 7.4 7.7 7.8 7.9 7.6 7.6 7.5 7.3 7.7 7.8
6.2 6.2 6.4 6.7 6.6 6.7 6.9 7.0 6.8 6.7 6.7 6.8 6.6 6.5 6.4 6.5 6.2 6.0 6.1 6.3 6.2 5.9 6.4 6.5 6.7 6.7 7.5 7.2 6.8 6.8 6.6 6.5 6.5 6.4 6.5 6.4 6.7 6.9 6.5 6.7 7.2 7.5 7.5 7.7 7.6 7.6 7.8 8.0 8.2 8.2 7.9 7.6 7.6 7.8
6.2 6.1 6.1 6.2 6.4 6.5 6.5 6.3 6.1 6.1 6.2 6.2 6.2 6.1 6.0 5.8 5.9 5.9 5.9 5.9 5.8 5.9 6.0 6.2 6.9 6.8 6.7 6.8 6.8 6.4 6.5 6.2 6.0 6.3 6.3 6.6 6.6 6.6 6.6 6.4 6.7 6.6 6.6 7.0 7.5 7.4 7.6 7.5 7.4 7.7 7.8 7.7 7.8 7.7
6.2 5.9 5.9 5.9 6.0 6.1 6.2 6.3 6.3 6.2 6.1 6.1 6.0 6.1 6.1 6.1 5.9 5.7 5.4 5.3 5.5 5.6 5.7 6.2 6.2 6.1 6.6 6.4 6.4 6.5 6.8 6.5 5.9 6.5 6.4 6.2 6.6 6.3 6.3 6.4 6.5 6.5 6.4 6.4 6.4 6.6 6.9 7.1 7.2 7.3 7.2 7.3 7.2 7.2
6.0 5.9 5.7 5.8 5.8 5.9 6.0 6.0 6.1 6.1 6.0 6.0 6.3 6.2 5.8 5.7 5.6 5.7 5.6 5.5 5.7 6.0 6.1 6.4 6.4 6.2 6.5 6.5 6.6 6.9 6.7 6.6 6.4 6.5 6.3 6.4 6.1 6.0 6.0 5.9 6.1 6.1 6.1 6.0 6.0 6.0 6.4 6.5 6.6 6.7 6.8 6.7 6.7 6.8
6.4 6.0 5.5 5.2 5.3 5.6 5.6 5.6 5.7 5.8 6.2 6.3 6.2 5.8 5.6 5.6 5.8 5.7 6.0 6.5 6.6 7.3 6.4 6.5 6.8 6.8 6.8 6.7 6.7 6.3 6.6 6.6 6.4 6.5 6.6 6.0 5.2 5.3 5.6 5.9 5.9 6.0 5.9 5.9 6.1 6.2 6.0 6.2 6.3 6.6 6.6 6.6 6.6 6.5
7.9 7.4 6.4 5.7 5.3 5.5 6.0 6.0 5.9 5.8 5.6 5.8 5.7 5.6 5.7 5.8 6.0 6.3 6.7 7.1 7.1 7.3 7.0 6.4 6.5 6.7 6.9 6.6 6.7 6.8 6.6 6.1 5.7 5.4 4.3 3.9 4.2 4.7 5.2 5.5 5.8 5.9 5.9 5.8 5.9 5.9 5.7 5.7 5.9 6.0 6.0 6.1 6.0 6.1
7.9 7.6 7.3 6.8 6.2 6.0 5.7 5.5 5.7 5.6 5.4 5.5 5.8 5.6 5.7 6.0 5.8 6.2 6.5 6.7 6.7 6.7 6.7 6.6 7.2 6.8 6.5 6.5 6.5 6.5 6.1 6.2 5.2 4.9 3.9 4.2 4.6 4.8 5.0 5.2 5.3 5.6 5.6 5.5 5.5 5.5 5.4 5.3 5.4 5.5 5.5 5.7 5.5 5.3
7.3 7.1 7.1 6.8 6.5 6.3 6.1 6.1 5.8 5.8 6.1 6.2 6.2 5.9 5.5 5.6 6.0 6.6 6.7 6.5 6.2 6.2 6.6 6.5 6.6 6.9 6.7 6.0 6.1 5.9 5.9 4.2 3.3 2.8 3.3 3.7 4.3 4.5 4.7 4.9 5.1 5.2 5.3 5.2 5.1 5.1 5.1 5.0 4.8 4.8 4.7 4.7 4.4 4.3
6.0 6.2 6.1 6.1 6.2 6.2 6.1 6.1 6.1 6.1 6.3 6.4 6.0 5.4 5.3 5.5 6.0 6.6 6.8 6.2 5.9 5.9 6.4 6.5 6.3 6.2 5.9 5.7 5.5 4.4 3.8 2.7 2.6 3.1 3.4 3.8 3.9 4.2 4.5 4.4 4.6 4.6 4.6 4.6 4.5 4.5 4.5 4.3 4.2 4.2 4.2 4.1 4.0 3.9
5.7 5.7 5.8 5.5 5.5 5.5 5.6 5.8 5.8 6.2 6.2 5.9 5.5 6.0 6.0 6.0 5.8 5.9 6.3 6.4 5.9 5.6 5.9 6.1 6.1 5.0 4.8 4.6 3.6 3.4 2.5 3.1 3.3 3.5 3.6 3.8 4.1 4.1 4.1 4.1 4.2 4.3 4.3 4.4 4.3 4.2 4.1 4.1 4.1 3.9 3.8 3.8 3.8 3.7
5.7 5.8 5.7 5.7 5.8 5.9 5.8 5.8 5.7 5.7 5.4 5.2 5.1 4.7 5.1 5.5 6.0 6.2 5.9 5.8 5.8 5.9 6.0 5.5 4.6 4.4 3.2 2.7 2.7 2.9 3.2 3.5 3.5 3.8 4.0 4.2 4.2 4.1 4.1 4.1 4.2 4.2 4.2 4.2 4.2 4.1 3.9 3.9 3.9 3.9 3.9 3.9 3.9 3.8
5.1 5.2 5.1 5.2 5.3 5.3 5.4 5.3 5.7 5.1 4.9 5.0 4.9 5.0 5.3 5.5 5.7 6.0 5.9 5.6 5.6 5.7 5.5 4.6 4.1 3.1 3.0 3.3 3.2 3.4 3.5 3.6 3.7 3.9 4.0 4.1 4.1 4.1 4.0 4.1 4.1 4.1 4.1 4.0 4.0 4.0 4.0 4.0 4.0 3.9 3.8 3.7 3.6 3.4
5.4 5.4 5.3 5.1 4.9 5.2 5.1 4.8 5.1 4.6 4.5 4.8 5.1 5.4 5.6 5.7 5.6 5.5 5.4 5.5 5.1 6.0 5.3 4.1 3.5 3.3 3.5 3.7 3.7 3.9 4.0 4.1 4.1 4.1 4.2 4.2 4.2 4.2 4.2 4.3 4.2 4.3 4.2 4.2 4.1 4.0 4.0 3.9 3.8 3.7 3.7 3.6 3.6 3.6
5.2 5.2 5.1 5.2 5.7 5.8 5.0 4.8 4.8 4.6 4.1 4.4 4.5 4.8 4.7 4.6 5.0 5.4 5.9 6.1 7.1 6.2 4.3 3.7 3.8 3.9 4.0 4.1 4.1 4.2 4.2 4.1 4.0 4.1 4.2 4.2 4.3 4.2 4.2 4.2 4.2 4.3 4.3 4.3 4.3 4.3 4.2 4.2 4.1 4.1 4.1 4.1 4.1 4.1
5.2 5.2 5.3 5.4 5.9 5.7 5.0 4.9 4.8 4.7 4.5 4.7 4.9 5.3 5.4 5.7 6.0 6.2 6.2 6.9 5.6 4.2 4.0 3.8 3.9 3.9 3.9 3.9 3.9 3.9 4.0 4.1 4.2 4.4 4.5 4.5 4.4 4.4 4.4 4.5 4.5 4.4 4.3 4.3 4.3 4.4 4.3 4.3 4.3 4.4 4.5 4.5 4.6 4.6
5.3 5.4 5.7 6.1 6.0 5.4 5.3 5.4 5.4 5.6 5.3 5.5 5.8 5.9 6.0 6.1 6.1 5.8 6.0 5.5 4.7 4.3 4.1 4.1 4.1 4.0 4.1 4.2 4.2 4.2 4.3 4.4 4.4 4.4 4.4 4.4 4.4 4.5 4.5 4.4 4.4 4.4 4.4 4.4 4.4 4.4 4.5 4.6 4.6 4.7 4.7 4.8 4.8 4.9
6.3 7.0 7.3 6.9 6.5 6.2 6.1 6.1 6.3 6.3 6.2 6.3 6.2 6.0 6.1 6.0 6.0 5.8 5.6 5.1 4.8 4.4 4.3 4.3 4.2 4.1 4.1 4.2 4.1 4.1 4.1 4.1 4.2 4.2 4.3 4.4 4.5 4.5 4.6 4.7 4.8 4.9 4.9 5.0 5.0 5.1 5.2 5.2 5.2 5.3 5.3 5.3 5.3 5.2
7.2 7.4 7.3 7.0 6.8 6.8 6.6 6.5 6.7 6.5 6.4 6.3 6.2 6.0 5.7 5.7 5.5 5.0 4.9 4.6 4.5 4.5 4.3 4.3 4.2 4.1 4.2 4.1 4.0 4.1 4.2 4.3 4.5 4.8 5.0 5.2 5.4 5.5 5.5 5.5 5.5 5.6 5.6 5.7 5.7 5.7 5.7 5.6 5.6 5.5 5.4 5.3 5.2 5.1
8.0 7.8 7.6 7.2 7.0 7.0 6.7 6.6 6.5 6.4 6.5 6.3 6.0 5.8 5.7 5.6 5.3 5.2 4.9 4.7 4.6 4.4 4.2 4.0 4.0 3.9 3.9 3.9 4.0 4.3 4.8 5.2 5.4 5.4 5.5 5.5 5.5 5.5 5.5 5.5 5.6 5.6 5.6 5.5 5.5 5.5 5.4 5.4 5.3 5.3 5.3 5.3 5.2 5.1
7.8 7.7 7.8 7.7 7.6 7.2 6.9 6.7 6.6 6.6 6.5 6.1 6.0 5.9 5.7 5.5 5.4 5.4 5.3 5.1 4.8 4.5 4.2 4.1 3.9 4.0 4.5 5.1 5.3 5.3 5.4 5.6 5.7 5.7 5.8 5.8 5.8 5.8 5.8 5.7 5.6 5.6 5.5 5.4 5.4 5.3 5.2 5.2 5.2 5.2 5.2 5.2 5.2 5.0
7.9 7.4 7.6 7.4 7.3 7.1 7.0 6.8 6.6 6.5 6.3 6.1 5.9 5.8 5.7 5.8 5.9 5.6 5.5 5.2 4.8 4.4 4.3 4.4 5.1 5.4 5.5 5.7 5.8 5.8 5.8 5.8 5.9 5.9 5.9 5.8 5.8 5.7 5.6 5.5 5.4 5.4 5.3 5.3 5.2 5.3 5.3 5.3 5.3 5.2 5.2 5.2 5.1 5.0
7.5 7.3 7.1 7.1 7.1 6.9 6.8 6.7 6.5 6.3 6.0 5.9 5.9 5.8 5.8 5.7 5.6 5.5 5.2 4.9 4.7 4.9 5.3 5.5 5.8 5.9 6.0 5.9 5.9 5.9 5.9 5.9 5.8 5.7 5.7 5.7 5.7 5.6 5.5 5.5 5.5 5.5 5.4 5.3 5.3 5.3 5.3 5.3 5.3 5.3 5.3 5.2 5.1 5.1
7.0 7.0 6.9 6.8 6.9 6.6 6.4 6.2 5.9 5.8 5.8 5.8 5.7 5.7 5.7 5.5 5.4 5.2 5.1 5.3 5.4 5.5 5.8 5.9 5.9 5.9 5.8 5.8 5.8 5.7 5.7 5.6 5.6 5.6 5.6 5.5 5.5 5.5 5.4 5.4 5.4 5.4 5.4 5.4 5.4 5.4 5.4 5.4 5.4 5.4 5.4 5.4 5.4 5.4
6.7 6.6 6.7 6.7 6.6 6.2 5.9 5.9 5.8 5.7 5.7 5.7 5.7 5.6 5.6 5.5 5.4 5.6 5.5 5.6 5.7 5.8 5.8 5.7 5.7 5.7 5.7 5.7 5.8 5.8 5.8 5.7 5.6 5.5 5.5 5.5 5.5 5.4 5.4 5.4 5.4 5.4 5.5 5.5 5.5 5.4 5.4 5.4 5.5 5.8 5.8 5.8 5.8 5.8
6.5 6.5 6.5 6.4 6.1 6.0 5.8 5.7 5.7 5.7 5.7 5.7 5.7 5.6 5.6 5.6 5.8 5.6 5.7 5.8 5.7 5.7 5.8 5.9 5.9 5.9 6.0 5.9 5.9 5.7 5.7 5.6 5.6 5.5 5.5 5.5 5.5 5.5 5.5 5.5 5.6 5.6 5.6 5.5 5.5 5.4 5.4 5.3 5.5 5.7 5.8 5.8 5.9 5.9
6.3 6.2 6.1 6.1 5.9 5.8 5.8 5.8 5.8 5.9 5.8 5.8 5.7 5.8 5.8 5.7 5.6 5.7 5.7 5.7 5.9 6.1 6.2 6.2 6.1 6.0 5.9 5.7 5.7 5.6 5.6 5.5 5.5 5.5 5.5 5.5 5.6 5.6 5.6 5.6 5.6 5.7 5.6 5.6 5.6 5.5 5.6 5.6 5.6 5.6 5.7 5.7 5.8 5.8
Wind_Speed
24 21 15 14 8 9 12 14 19 17 23 28 37 38 39 40 36 16 10 14 9 5 5 9 13 17 18 18 16 20 14 9 9 9 9 7 7 9 13 16 14 9 7 6 9 11 14 2 10 14 15 16 6 9
22 14 9 9 4 6 4 8 14 22 23 31 33 35 36 37 33 18 7 14 7 0 3 1 6 3 1 17 17 16 12 19 9 10 7 7 5 2 11 10 15 13 9 8 8 5 9 12 14 16 16 12 9 10
18 10 9 7 4 3 8 12 17 21 26 29 31 33 34 34 27 10 10 10 8 3 4 5 6 4 2 10 10 13 13 15 17 13 6 4 4 8 7 10 10 15 11 11 12 11 14 10 15 15 8 12 12 8
17 13 10 8 7 9 12 16 19 21 23 25 29 29 31 35 24 12 9 9 8 4 3 4 2 4 3 8 11 9 12 19 7 9 6 4 5 7 7 9 11 11 9 12 16 17 20 14 9 10 14 10 9 7
17 16 15 13 10 10 13 15 17 20 23 26 31 35 31 27 25 11 7 1 5 4 3 3 1 8 6 4 12 12 13 10 9 9 5 6 7 6 4 6 11 12 13 9 8 12 9 13 9 7 11 13 11 12
16 14 17 19 19 21 18 17 15 21 26 30 39 32 29 27 27 9 4 2 4 5 2 1 4 7 12 9 10 16 15 11 9 11 8 7 11 9 4 9 14 16 13 14 14 14 9 6 6 3 6 12 10 11
17 20 20 20 18 23 26 30 33 32 31 35 29 28 25 21 8 4 2 8 5 3 1 2 3 3 11 7 3 7 13 10 7 8 6 8 7 5 5 9 8 8 6 12 11 3 10 7 4 3 6 7 4 9
17 18 20 22 26 26 28 28 29 33 33 32 29 25 23 16 11 6 4 11 8 3 2 0 3 2 8 4 3 9 9 11 8 5 5 10 6 4 6 10 15 17 17 10 7 7 7 3 2 3 2 4 9 10
17 18 20 21 24 28 30 31 31 29 29 28 27 22 9 3 3 4 6 5 2 0 4 3 2 2 8 4 5 3 6 8 4 7 9 5 7 7 7 10 11 12 8 8 2 4 5 7 6 5 6 7 8 9
15 17 19 20 21 23 25 26 28 29 27 24 12 3 4 3 16 16 2 3 2 3 2 2 3 3 4 5 4 4 1 5 6 5 7 5 5 10 16 15 11 11 10 7 6 6 6 8 6 6 6 6 7 9
18 17 18 18 18 19 20 22 22 22 14 1 3 3 7 8 1 1 3 4 3 4 4 4 8 5 2 1 2 2 2 2 4 3 6 5 2 9 13 13 13 12 8 7 8 8 6 6 4 5 5 6 9 11
22 20 20 20 19 19 19 19 16 2 4 2 5 8 4 3 3 1 2 2 4 2 3 3 3 3 2 1 2 2 3 2 3 2 2 3 5 14 11 11 12 11 8 11 12 10 9 10 6 7 9 11 12 14
26 23 21 19 18 19 15 12 10 7 1 1 1 3 1 2 1 2 5 2 1 1 2 3 1 1 2 2 1 0 2 3 3 2 3 5 10 13 10 8 8 10 11 12 14 14 16 16 15 13 13 13 14 14
24 24 23 22 19 14 9 7 8 6 6 4 3 4 4 5 6 4 4 3 3 3 4 1 1 2 2 2 1 3 2 0 3 3 5 7 14 10 8 7 8 12 12 13 13 14 15 15 14 13 11 12 14 15
20 21 21 20 17 9 6 8 8 6 4 5 6 5 6 4 5 5 6 3 3 3 3 2 1 3 4 2 4 3 4 5 7 4 5 9 13 8 10 10 10 11 10 12 13 14 15 15 16 16 14 14 15 14
17 10 6 13 14 12 7 5 3 2 3 4 8 5 8 4 8 9 8 5 5 5 2 1 2 3 4 3 5 7 4 6 4 5 7 10 10 11 11 11 13 12 13 14 14 15 16 16 16 17 17 16 15 15
4 3 5 9 8 6 6 3 3 6 5 5 5 9 6 4 6 8 9 8 7 4 3 3 5 7 3 4 4 5 4 5 6 7 7 12 13 12 12 13 13 14 15 16 16 16 16 15 15 16 17 15 15 15
5 8 10 4 2 5 4 5 4 5 7 5 2 6 6 4 7 7 6 7 6 3 3 5 3 7 6 4 4 4 5 5 6 7 9 10 13 13 12 14 15 15 16 15 15 15 14 14 14 11 13 12 12 12
9 8 10 9 5 3 4 4 4 4 5 2 7 6 2 5 8 8 7 6 8 7 4 4 7 5 5 4 5 5 4 5 6 7 9 13 13 13 13 14 16 16 17 16 14 11 12 15 11 9 8 8 8 8
18 14 7 7 2 3 5 3 2 5 3 3 4 9 10 9 8 10 11 9 8 4 7 6 5 7 6 7 6 5 6 5 6 7 9 9 9 13 15 12 10 12 12 14 13 14 11 11 10 10 10 10 8 8
7 4 7 5 4 6 4 3 4 4 4 3 3 6 6 9 12 11 12 10 9 5 6 7 8 8 10 9 8 8 10 10 9 9 8 9 9 10 10 10 12 11 11 10 10 11 12 10 8 8 9 9 8 8
3 3 2 4 3 4 5 6 3 2 3 3 3 4 4 6 7 9 10 9 7 9 7 8 8 8 9 12 10 11 11 13 12 10 12 10 9 9 9 9 9 10 10 9 9 9 9 8 7 8 8 7 7 8
2 2 3 3 4 4 3 2 4 4 3 2 3 4 4 4 4 4 5 5 5 7 7 8 10 11 11 12 12 13 12 12 9 9 9 9 9 9 9 9 9 9 8 8 8 7 7 8 8 7 7 7 7 6
4 4 4 4 5 4 2 3 3 3 3 4 3 4 4 4 3 4 5 3 4 5 6 7 5 6 8 10 9 9 8 8 8 8 8 7 7 8 8 8 8 8 7 6 6 7 7 6 7 6 7 7 7 6
4 7 4 7 3 4 4 3 4 4 4 4 3 4 3 2 3 4 3 3 4 5 5 5 6 6 7 7 7 7 9 7 7 8 8 7 6 5 5 7 8 8 7 6 7 6 6 6 6 6 6 7 7 8
7 9 5 4 3 4 4 3 3 4 3 3 4 3 1 3 3 4 3 3 4 5 5 5 4 5 6 6 6 6 6 5 5 7 8 7 7 6 6 6 5 6 7 6 6 7 7 7 7 8 7 7 8 8
5 5 4 4 3 5 5 5 5 5 4 4 3 2 2 3 4 3 4 4 4 4 4 5 5 5 6 6 6 6 6 7 8 6 5 6 7 7 7 6 6 5 6 7 6 7 7 7 7 7 7 6 7 7
5 5 5 4 5 5 4 4 4 4 3 3 1 4 3 3 3 3 3 4 5 5 5 5 5 5 6 5 4 4 4 3 3 3 4 5 5 5 5 4 4 4 5 5 6 5 6 6 6 6 6 6 5 5
5 3 4 6 6 6 7 5 4 4 4 3 2 3 3 3 2 5 5 5 4 4 4 5 5 5 5 5 4 5 5 4 3 3 3 3 2 4 4 4 4 4 5 4 3 4 6 5 5 4 5 5 4 5
4 3 4 6 5 6 5 5 6 5 5 5 4 6 7 5 3 2 4 3 3 4 4 4 3 2 2 2 3 3 5 5 5 4 3 3 3 3 3 4 4 4 4 5 5 5 2 4 4 3 3 4 4 5
2 3 5 5 5 6 6 6 6 6 5 6 7 7 6 4 3 3 3 3 4 4 4 4 3 2 2 1 2 1 2 3 3 4 3 2 2 2 4 4 5 6 4 4 4 4 5 5 5 5 5 6 6 6
4 5 4 5 4 4 1 2 3 3 3 3 3 3 3 3 3 3 3 2 3 3 3 1 2 3 3 3 3 4 3 2 2 2 1 2 3 4 6 6 5 5 4 5 5 4 5 6 6 6 6 8 8 8
6 8 8 5 3 3 2 2 2 3 2 2 3 2 3 2 2 3 3 1 2 2 3 3 3 4 4 3 2 3 1 2 2 1 1 2 4 6 7 6 6 6 6 5 5 5 6 7 7 8 8 9 9 9
Wind_Direction
314 311 304 317 325 318 266 265 222 227 189 171 170 171 176 177 178 164 177 191 198 197 242 204 260 209 197 207 199 209 195 182 181 196 205 185 238 245 240 215 171 187 204 194 233 233 236 163 154 200 222 247 221 221
323 321 327 353 2 350 62 81 129 141 149 155 160 163 171 169 169 164 161 189 198 282 43 93 295 349 175 225 199 212 189 183 182 204 201 212 185 246 234 239 212 200 217 224 224 234 217 189 220 221 245 280 208 237
348 359 2 16 43 67 97 101 116 127 149 154 156 155 157 159 155 169 149 142 153 133 190 201 161 57 286 277 278 217 207 198 210 217 196 198 182 193 210 228 227 226 233 238 266 267 261 223 241 270 261 243 271 230
9 29 33 52 65 107 108 111 121 129 133 141 147 152 155 153 156 164 134 151 149 158 178 137 169 251 53 291 256 243 245 234 252 202 201 182 189 211 223 243 235 239 220 226 252 254 266 257 251 266 265 255 246 227
22 35 58 65 69 111 118 123 115 126 135 142 142 133 132 137 134 106 81 93 189 255 160 165 343 227 220 321 273 262 255 255 201 196 216 219 214 246 237 255 244 232 236 230 245 261 265 255 254 328 243 236 237 235
29 53 59 66 71 88 107 143 136 123 139 130 132 123 134 119 111 107 92 287 227 161 89 119 328 232 198 179 240 249 238 228 200 207 213 225 223 205 234 246 242 243 242 238 256 277 302 306 309 318 297 253 224 226
45 62 75 65 89 89 89 94 104 100 109 123 124 118 117 120 111 87 143 149 173 145 143 359 299 226 201 191 276 256 247 225 227 236 211 228 203 195 246 245 253 267 301 297 260 308 273 245 304 332 255 216 191 205
68 66 73 66 89 94 100 109 107 105 107 113 114 103 98 101 136 120 55 135 167 127 128 89 249 205 183 156 208 205 214 211 224 224 231 212 199 219 246 250 247 259 269 265 256 218 268 306 239 200 189 167 201 181
87 80 81 80 79 92 99 102 105 102 103 105 103 100 91 99 158 89 158 194 332 78 179 188 269 191 163 205 221 154 204 197 223 216 221 230 216 225 15 347 354 351 329 331 317 291 263 255 249 194 185 185 192 170
97 95 92 93 92 94 98 105 114 121 123 126 137 116 120 81 117 129 114 139 230 178 204 251 267 230 257 195 157 140 178 151 189 205 181 223 204 49 12 341 336 334 331 314 276 272 272 261 240 214 208 192 170 168
114 103 100 97 98 105 113 119 123 125 147 91 73 64 94 119 81 160 144 185 149 193 212 236 213 225 66 77 133 73 139 164 178 196 205 189 119 354 345 342 343 341 331 335 336 323 343 317 236 187 146 123 127 125
120 108 104 101 102 105 110 123 144 114 30 33 103 121 127 206 209 182 140 128 205 168 151 241 215 193 102 32 56 166 157 157 164 9 72 79 20 353 344 342 354 351 8 34 23 31 35 56 64 101 105 101 96 102
107 103 105 99 105 107 72 59 55 45 306 64 91 79 301 29 147 220 173 171 150 74 74 331 173 42 100 98 42 163 171 91 137 76 79 49 357 349 347 350 15 21 35 53 58 60 62 64 64 82 95 95 96 92
98 97 93 89 82 67 54 96 64 51 38 31 15 69 358 45 30 29 337 1 6 340 333 284 36 29 29 53 8 190 68 49 72 59 60 3 345 344 1 25 45 49 51 59 63 67 70 75 76 73 75 87 95 97
103 97 100 98 101 99 19 337 41 72 28 27 7 37 41 359 24 346 351 324 40 295 297 225 94 56 19 19 3 58 65 70 34 50 12 341 331 8 29 40 55 61 61 66 67 71 72 76 76 73 69 73 76 79
107 92 88 126 120 126 156 140 97 76 56 57 35 5 351 11 4 356 354 345 11 329 305 13 92 99 33 25 48 20 64 44 48 10 1 349 33 42 49 53 57 62 66 70 70 73 73 73 77 79 72 68 70 76
104 93 128 96 105 97 69 110 61 45 43 38 55 24 3 22 351 337 332 331 316 302 61 53 54 42 39 54 53 21 42 38 22 27 18 25 31 41 50 59 62 67 69 68 70 69 71 73 75 73 75 74 78 77
102 133 130 111 43 50 53 45 70 55 66 21 45 39 36 19 358 357 347 341 1 45 32 53 56 37 35 47 54 49 44 64 55 46 38 36 46 48 52 59 58 60 62 64 69 72 73 73 74 77 82 83 85 84
118 102 62 35 28 64 63 46 57 85 47 75 49 38 30 32 23 5 12 36 39 47 105 68 57 37 53 41 32 49 40 48 75 60 56 48 42 51 62 63 63 62 63 64 66 65 63 60 63 67 71 71 70 66
81 62 57 18 285 82 86 74 124 84 65 86 83 62 56 49 35 39 29 38 58 58 52 49 53 51 49 48 40 38 22 43 94 78 62 53 53 54 52 58 62 67 68 64 57 57 62 60 55 54 52 52 59 54
73 337 15 19 50 55 71 58 68 85 127 73 69 72 63 59 42 39 43 40 47 45 71 73 72 67 59 59 61 64 59 58 60 62 70 68 56 59 61 58 58 58 60 57 58 53 49 49 44 47 49 51 46 37
102 297 67 14 76 63 63 21 72 86 78 99 75 50 42 42 37 37 47 43 57 50 49 60 65 73 65 57 59 66 76 74 72 72 67 64 58 55 52 53 58 59 56 55 55 53 53 40 34 47 41 46 57 54
168 53 50 45 81 61 47 355 67 22 69 65 46 44 43 49 41 45 72 49 64 42 64 71 73 74 79 75 69 60 58 68 70 70 69 68 68 66 63 56 52 57 58 53 49 52 53 32 44 32 39 35 29 35
43 52 41 51 53 89 92 49 43 63 50 46 51 55 38 38 39 67 72 64 54 55 52 51 80 96 83 67 58 47 51 65 69 61 57 68 69 63 60 57 51 45 42 44 45 44 36 43 25 37 34 33 30 25
78 17 1 63 42 89 80 70 35 61 67 52 74 62 57 28 62 70 81 98 72 57 59 59 61 69 84 84 78 66 42 52 68 70 44 33 56 76 83 85 63 45 26 32 32 35 36 25 34 19 29 35 19 9
72 25 33 38 45 57 50 79 64 66 82 74 66 76 43 71 75 79 80 95 67 56 39 35 66 81 65 50 64 50 35 27 69 68 49 36 31 29 40 37 44 51 28 18 20 16 27 18 23 14 11 15 24 7
72 62 58 20 77 95 98 74 69 68 67 58 59 53 70 74 81 82 104 61 86 66 55 32 53 76 88 85 72 59 54 50 52 64 63 54 49 42 40 38 36 21 11 12 17 12 8 8 9 7 6 4 12 4
59 40 73 41 70 43 83 64 52 52 60 21 62 39 56 44 86 64 90 95 93 88 82 68 55 62 73 72 65 71 79 92 110 113 123 101 69 58 48 50 57 22 354 20 359 356 4 358 357 355 1 348 352 347
64 70 94 52 64 57 35 35 59 53 354 351 75 74 87 66 56 119 119 111 115 118 107 100 92 99 99 89 64 45 31 13 8 31 32 36 34 59 28 15 4 13 356 348 7 353 348 346 341 345 334 333 328 328
63 3 87 53 55 54 41 22 87 76 47 64 101 111 106 100 66 46 121 139 120 90 80 91 113 135 117 127 98 76 51 35 25 5 6 24 35 20 2 6 357 3 347 348 344 336 350 324 308 299 309 327 333 335
57 71 73 65 79 82 98 118 121 100 69 61 55 90 101 120 116 55 70 88 105 127 132 125 122 116 123 86 24 52 103 80 52 42 17 36 24 357 10 345 349 340 332 334 330 326 340 321 323 319 322 324 322 315
41 52 108 100 112 138 260 88 61 73 76 73 86 110 146 150 125 139 138 169 161 154 53 100 154 127 86 87 82 80 36 71 78 55 4 344 339 3 339 332 327 321 327 319 307 309 315 316 312 315 314 313 323 318
88 80 90 96 110 124 116 114 81 95 74 70 79 38 45 12 95 102 130 296 352 95 134 114 96 111 113 95 79 109 217 63 46 19 24 2 344 331 312 315 327 318 313 308 308 309 307 311 311 316 310 308 309 312